Location: Riverside
(39.1734°N, 77.8561°W)
Time: 21:25:48
(UTC+00:00)

Envisat - Visible Passes

Search period start: 23 March 2019 00:00
Search period end: 02 April 2019 00:00
Orbit: 764 x 766 km, 98.2° (Epoch: 22 March)

Date Brightness Start Highest point End Pass type
(mag) Time Alt. Az. Time Alt. Az. Time Alt. Az.
23 Mar 6.1 01:21:25 10° WSW 01:23:17 12° W 01:25:09 10° WNW visible
24 Mar 5.1 00:41:53 10° SSW 00:46:11 28° W 00:50:31 10° NW visible
25 Mar 3.6 00:04:16 10° S 00:09:17 64° W 00:14:21 10° NNW visible
26 Mar 5.9 01:08:58 10° SW 01:11:56 16° W 01:14:55 10° NW visible
27 Mar 4.7 00:30:17 10° SSW 00:34:55 35° W 00:39:33 10° NNW visible
27 Mar 3.2 23:52:59 10° S 23:58:04 81° WSW 00:03:10 10° NNW visible
29 Mar 5.7 00:56:57 10° SW 01:00:37 20° W 01:04:18 10° NW visible
30 Mar 4.2 00:18:48 10° S 00:23:38 45° W 00:28:30 10° NNW visible
31 Mar 6.2 01:25:23 10° W 01:26:26 11° W 01:27:28 10° WNW visible
01 Apr 5.3 00:45:10 10° SSW 00:49:19 25° W 00:53:29 10° NW visible
